Weather History for MMTJ - April, 2013

Change the Weather History Date:

Tuesday, April 23, 2013

  Actual Average Record
Temperature  
Mean Temperature 62 °F -  
Max Temperature 68 °F 69 °F 82 °F (2004)
Min Temperature 55 °F 50 °F 46 °F (1999)
Degree Days  
Heating Degree Days 4    
Growing Degree Days 12 (Base 50)    
Moisture  
Dew Point 48 °F    
Average Humidity 64    
Maximum Humidity 77    
Minimum Humidity 49    
Precipitation  
Precipitation 0.00 in - - ()
Sea Level Pressure  
Sea Level Pressure 29.96 in    
Wind  
Wind Speed 3 mph ()    
Max Wind Speed 13 mph    
Max Gust Speed -    
Visibility 5.9 miles    
Events      
Averages and records for this station are not official NWS values.
T = Trace of Precipitation, MM = Missing Value Source: Averaged Metar Reports

Daily Weather History Graph

Daily Weather History Graph

Search for Another Location

Airport or City:

Trip Planner

Search our weather history database for the weather conditions in past years. The results will help you decide how hot, cold, wet, or windy it might be!

Date:

Astronomy

Apr. 23, 2013 Rise Set
Actual Time 6:08 AM PDT 7:23 PM PDT
Civil Twilight 5:43 AM PDT 7:49 PM PDT
Nautical Twilight 5:12 AM PDT 8:20 PM PDT
Astronomical Twilight 4:41 AM PDT 8:51 PM PDT
Moon 5:29 PM PDT (4/23) 4:32 AM PDT (4/23)
Length of Visible Light 14h 06m
Length of Day
13h 14m
Waxing Gibbous, 94% of the Moon is Illuminated
Apr 23
Waxing Gibbous
Apr 25
Full
May 2
Last Quarter
May 9
New
May 17
First Quarter

Hourly Weather History & Observations

Time (PDT) Temp. Dew Point Humidity Pressure Visibility Wind Dir Wind Speed Gust Speed Precip Events Conditions
12:41 AM 57.2 °F 48.2 °F 72% 29.97 in 6.0 mi Calm Calm - N/A   Overcast
1:45 AM 57.2 °F 48.2 °F 72% 29.98 in 6.0 mi Calm Calm - N/A   Overcast
2:51 AM 57.2 °F 48.2 °F 72% 29.94 in 6.0 mi Calm Calm - N/A   Overcast
3:50 AM 57.2 °F 48.2 °F 72% 29.94 in 6.0 mi Calm Calm - N/A   Overcast
4:42 AM 57.2 °F 46.4 °F 67% 29.96 in 6.0 mi Calm Calm - N/A   Overcast
5:47 AM 57.2 °F 46.4 °F 67% 29.94 in 5.0 mi Calm Calm - N/A   Overcast
6:42 AM 57.2 °F 46.4 °F 67% 29.96 in 6.0 mi Calm Calm - N/A   Overcast
7:44 AM 57.2 °F 46.4 °F 67% 29.98 in 5.0 mi ESE 6.9 mph - N/A   Overcast
8:40 AM 59.0 °F 46.4 °F 63% 29.99 in 5.0 mi East 5.8 mph - N/A   Overcast
9:45 AM 60.8 °F 46.4 °F 59% 29.99 in 5.0 mi WNW 4.6 mph - N/A   Partly Cloudy
10:44 AM 62.6 °F 46.4 °F 55% 29.99 in 6.0 mi NNW 9.2 mph - N/A   Clear
11:51 AM 64.4 °F 46.4 °F 52% 29.99 in 7.0 mi SSW 3.5 mph - N/A   Clear
12:51 PM 66.2 °F 46.4 °F 49% 29.95 in 6.0 mi SW 4.6 mph - N/A   Clear
1:45 PM 68.0 °F 48.2 °F 49% 29.95 in 7.0 mi WSW 8.1 mph - N/A   Clear
2:41 PM 66.2 °F 48.2 °F 52% 29.93 in 7.0 mi WNW 10.4 mph - N/A   Clear
3:40 PM 66.2 °F 48.2 °F 52% 29.90 in 7.0 mi WNW 11.5 mph - N/A   Clear
4:44 PM 64.4 °F 48.2 °F 56% 29.94 in 7.0 mi West 10.4 mph - N/A   Clear
5:42 PM 62.6 °F 48.2 °F 59% 29.92 in 6.0 mi West 12.7 mph - N/A   Clear
6:40 PM 59.0 °F 48.2 °F 67% 29.93 in 6.0 mi WNW 9.2 mph - N/A   Scattered Clouds
7:40 PM 57.2 °F 48.2 °F 72% 29.96 in 6.0 mi NW 9.2 mph - N/A   Clear
8:40 PM 57.2 °F 48.2 °F 72% 29.96 in 6.0 mi NW 6.9 mph - N/A   Clear
9:42 PM 57.2 °F 48.2 °F 72% 29.97 in 5.0 mi NW 5.8 mph - N/A   Scattered Clouds
10:41 PM 55.4 °F 48.2 °F 77% 29.99 in 5.0 mi NW 5.8 mph - N/A   Mostly Cloudy
11:51 PM 57.2 °F 48.2 °F 72% 29.98 in 5.0 mi West 3.5 mph - N/A   Mostly Cloudy